Time,TemperatureF,DewpointF,PressureIn,WindDirection,WindDirectionDegrees,WindSpeedMPH,WindSpeedGustMPH,Humidity,HourlyPrecipIn,Conditions,Clouds,dailyrainin,SoftwareType,DateUTC
2013-07-18 10:32:00,86.0,72.0,29.90,West,264,6.0,12.0,63,0.00,,,0.14,,2013-07-18 15:32:00,
2013-07-18 10:43:00,86.0,72.0,29.90,West,264,6.0,12.0,63,0.00,,,0.14,,2013-07-18 15:43:00,
2013-07-18 10:53:00,86.0,72.0,29.90,West,264,6.0,12.0,63,0.00,,,0.14,,2013-07-18 15:53:00,
2013-07-18 11:01:00,86.0,71.0,29.90,West,260,6.0,13.0,62,0.00,,,0.14,,2013-07-18 16:01:00,
2013-07-18 11:11:00,86.0,71.0,29.90,West,260,6.0,13.0,62,0.00,,,0.14,,2013-07-18 16:11:00,
2013-07-18 11:22:00,86.0,71.0,29.90,West,260,6.0,13.0,62,0.00,,,0.14,,2013-07-18 16:22:00,
2013-07-18 11:32:00,87.0,71.0,29.88,WSW,255,6.0,12.0,60,0.00,,,0.14,,2013-07-18 16:32:00,
2013-07-18 11:42:00,87.0,71.0,29.88,WSW,255,6.0,12.0,60,0.00,,,0.14,,2013-07-18 16:42:00,
2013-07-18 11:52:00,87.0,71.0,29.88,WSW,255,6.0,12.0,60,0.00,,,0.14,,2013-07-18 16:52:00,
2013-07-18 12:02:00,87.0,71.0,29.88,WSW,255,6.0,12.0,60,0.00,,,0.14,,2013-07-18 17:02:00,
2013-07-18 12:11:00,87.0,71.0,29.88,WSW,255,6.0,12.0,60,0.00,,,0.14,,2013-07-18 17:11:00,
2013-07-18 14:11:00,92.0,71.0,29.82,West,260,9.0,17.0,51,0.00,,,0.14,,2013-07-18 19:11:00,
2013-07-18 14:22:00,92.0,71.0,29.80,WSW,253,8.0,16.0,50,0.00,,,0.14,,2013-07-18 19:22:00,
2013-07-18 14:32:00,92.0,71.0,29.80,WSW,257,7.0,16.0,51,0.00,,,0.14,,2013-07-18 19:32:00,
2013-07-18 14:43:00,91.0,69.0,29.80,WSW,257,7.0,17.0,49,0.00,,,0.14,,2013-07-18 19:43:00,
2013-07-18 14:53:00,91.0,69.0,29.80,WSW,257,7.0,17.0,49,0.00,,,0.14,,2013-07-18 19:53:00,
2013-07-18 15:02:00,91.0,69.0,29.80,WSW,257,7.0,17.0,49,0.00,,,0.14,,2013-07-18 20:02:00,
2013-07-18 15:11:00,91.0,69.0,29.80,WSW,257,7.0,17.0,49,0.00,,,0.14,,2013-07-18 20:11:00,
2013-07-18 15:22:00,91.0,69.0,29.80,WSW,257,7.0,17.0,49,0.00,,,0.14,,2013-07-18 20:22:00,
2013-07-18 16:43:00,89.0,73.0,29.75,South,175,1.0,7.0,60,0.00,,,0.01,,2013-07-18 21:43:00,
2013-07-18 16:52:00,90.0,75.0,29.74,SSW,213,2.0,12.0,61,0.00,,,0.01,,2013-07-18 21:52:00,
2013-07-18 17:01:00,90.0,75.0,29.74,SSW,213,2.0,12.0,61,0.00,,,0.01,,2013-07-18 22:01:00,
2013-07-18 17:11:00,91.0,71.0,29.73,WSW,254,9.0,24.0,52,0.00,,,0.01,,2013-07-18 22:11:00,
2013-07-18 17:22:00,91.0,70.0,29.72,WSW,255,8.0,18.0,51,0.00,,,0.01,,2013-07-18 22:22:00,
2013-07-18 17:32:00,91.0,70.0,29.72,WSW,255,8.0,18.0,51,0.00,,,0.01,,2013-07-18 22:32:00,
2013-07-18 17:41:00,91.0,70.0,29.72,WSW,251,12.0,24.0,51,0.00,,,0.00,,2013-07-18 22:41:00,
2013-07-18 17:43:00,91.0,70.0,29.72,WSW,253,8.0,16.0,51,0.00,,,0.01,,2013-07-18 22:43:00,
2013-07-18 17:53:00,91.0,70.0,29.72,WSW,253,8.0,16.0,51,0.00,,,0.01,,2013-07-18 22:53:00,
2013-07-18 18:02:00,91.0,70.0,29.72,WSW,251,12.0,24.0,51,0.00,,,0.00,,2013-07-18 23:02:00,
2013-07-18 18:11:00,91.0,70.0,29.72,WSW,251,12.0,24.0,51,0.00,,,0.00,,2013-07-18 23:11:00,
2013-07-18 18:22:00,91.0,70.0,29.72,WSW,251,12.0,24.0,51,0.00,,,0.00,,2013-07-18 23:22:00,
2013-07-18 18:32:00,91.0,70.0,29.72,WSW,251,12.0,24.0,51,0.00,,,0.00,,2013-07-18 23:32:00,
2013-07-18 19:11:00,89.0,71.0,29.69,WSW,250,7.0,16.0,55,0.00,,,0.00,,2013-07-19 00:11:00,
2013-07-18 19:22:00,89.0,71.0,29.69,WSW,250,7.0,16.0,55,0.00,,,0.00,,2013-07-19 00:22:00,
2013-07-18 19:32:00,89.0,71.0,29.69,WSW,250,7.0,16.0,55,0.00,,,0.00,,2013-07-19 00:32:00,
2013-07-18 19:43:00,89.0,71.0,29.67,WSW,250,9.0,17.0,55,0.00,,,0.00,,2013-07-19 00:43:00,
2013-07-18 19:52:00,88.0,71.0,29.67,WSW,248,8.0,19.0,57,0.00,,,0.00,,2013-07-19 00:52:00,
2013-07-18 20:01:00,88.0,71.0,29.67,WSW,248,8.0,19.0,57,0.00,,,0.00,,2013-07-19 01:01:00,
2013-07-18 20:11:00,87.0,70.0,29.67,WSW,248,7.0,13.0,57,0.00,,,0.00,,2013-07-19 01:11:00,
2013-07-18 20:22:00,87.0,70.0,29.67,WSW,248,5.0,13.0,58,0.00,,,0.00,,2013-07-19 01:22:00,
2013-07-18 20:32:00,87.0,70.0,29.67,WSW,249,5.0,16.0,58,0.00,,,0.00,,2013-07-19 01:32:00,
2013-07-18 20:42:00,87.0,70.0,29.67,WSW,249,5.0,16.0,58,0.00,,,0.00,,2013-07-19 01:42:00,
2013-07-18 20:52:00,87.0,70.0,29.67,WSW,249,5.0,16.0,58,0.00,,,0.00,,2013-07-19 01:52:00,
2013-07-18 21:02:00,87.0,70.0,29.67,WSW,249,5.0,16.0,58,0.00,,,0.00,,2013-07-19 02:02:00,
2013-07-18 21:11:00,87.0,70.0,29.67,WSW,249,5.0,16.0,58,0.00,,,0.00,,2013-07-19 02:11:00,